INTELSAT 33E DEB, 62003

Orbit data source: Space-Track

INTELSAT 33E DEB, 62003 is space debris in GEO originally from a launch on Wed, 24 Aug 2016 UTC launched from the French Guiana (FRGUI). Debris objects in space refer to the collection of defunct objects orbiting the Earth. Examples of debris include non-operational satellites, rocket bodies, and fragments generated from explosions, collisions, or faulty payload assembly.

Not visible in the next 10 days
Identifier
62003, 2016-053V
Orbit
GEO
Country
Flag of USUS / ITSO
Related business
Manufacturer
Boeing/ES
Mission
Spacecraft
Bus & Motor
Unknown
Mass
Unknown
Launch date (UTC)
2016-08-24 (10 years ago)
Launch vehicle
Unknown
Launch site
French Guiana (FRGUI)
Object type
Payload
Rocket body
Debris
Shape & HBR
Unknown shape, 1.1 m
Radar Cross Section
RCS unknown

Expand to show TLE details & history
Last TLE update: 1 day ago

TLE from 1 day ago
0 INTELSAT 33E DEB
1 62003U 16053V   26165.39990460  .00000147  00000-0  00000-0 0  9998
2 62003   1.6188  87.8193 0016429 271.3744  87.4766  1.00439310  6053
Epoch: 2026-06-14T09:35Z
TLE epoch observation values (Epoch: 2026-06-14T09:35:51.757Z)
Latitude
-0°
Longitude
40.19007°
Altitude
35,736.158 km
Speed
3.077 km/s
True Right ascension
05h 47m 25s
True Declination
0° 00' 00"
Sunlit
Object was in daylight at epoch
Visualization orbit readout
Latitude
Unknown
Longitude
Unknown
Altitude
Unknown
Speed
Unknown
Apparent Right ascension
Unknown
Apparent Declination
Unknown
Sunlit
N/A
Visualization observer readout
Local Sidereal Time
01:32:04
Azimuth
Unknown
Elevation
Unknown
Doppler factor
Unknown
Orbital elements
Apogee altitude
35,809.964 km
Perigee altitude
35,671.57 km
Semi-major axis
42,118.904 km
Eccentricity
0.00164
Inclination
1.6188°
RAAN
87.8193°
Arg. of periapsis
271.3744°
True anomaly
87.6647°
Mean anomaly
87.4766°
Eccentric anomaly
87.57065°
Mean motion
0.25109 °/min
Orbital period
1,433.75 mins
BSTAR
0
Loading maneuver chart data...
Computing Atmospheric mass density...
Loading historical data...
Loading historical data...
Loading historical data...
Loading historical data...
Loading historical data...
Loading historical data...
Loading historical data...

Documentation

Showing up to 5 results
|